Location: Moneta
(37.1826°N, 79.6196°W)
Time: 14:23:57
(UTC+00:00)

Tiangong - Visible Passes

Search period start: 30 January 2023 00:00
Search period end: 09 February 2023 00:00
Orbit: 383 x 386 km, 41.5° (Epoch: 30 January)

Date Brightness Start Highest point End Pass type
(mag) Time Alt. Az. Time Alt. Az. Time Alt. Az.
30 Jan 0.1 00:39:17 10° W 00:41:35 22° SW 00:41:35 22° SW visible
30 Jan -0.9 23:39:23 10° W 23:42:22 39° SSW 23:45:20 10° SE visible
01 Feb 0.9 00:18:00 10° WSW 00:19:16 12° SW 00:20:31 10° SSW visible
01 Feb 0.4 23:17:20 10° W 23:19:50 21° SSW 23:22:19 10° SSE visible
